Temperature
5 5 5 5 5 5 5 5 4 4 4 4 4 4 4 4 5 4 4 5 5 5 5 5 4 4 4 4 4 4 4 4 3 4 4 4 4 3
4 4 4 4 4 4 4 4 4 4 3 3 4 4 4 4 4 4 4 4 4 4 4 4 4 4 4 4 3 3 3 3 3 3 3 3 3 3
4 4 4 4 4 4 4 4 4 4 3 3 3 3 3 3 3 4 4 4 4 4 4 3 3 3 3 3 3 3 3 3 3 3 3 3 3 3
3 3 3 3 3 3 3 3 3 3 3 3 3 3 3 3 3 3 3 3 3 3 3 3 3 3 3 2 2 2 2 2 2 2 2 2 2 2
3 3 3 3 3 3 3 3 3 3 3 3 2 2 2 2 2 2 2 2 3 3 3 2 2 2 2 2 2 2 2 2 2 2 2 2 2 2
2 2 2 2 2 3 2 2 2 2 2 2 2 2 2 2 2 2 2 2 2 2 2 2 2 2 2 2 1 1 1 1 1 1 1 2 2 2
2 2 2 2 2 2 2 2 2 2 2 1 1 1 1 1 1 1 1 1 1 1 1 1 1 1 1 1 1 1 1 1 1 1 1 1 1 1
1 1 2 2 2 2 2 2 2 1 1 1 1 0 0 1 1 0 0 0 0 1 1 1 1 1 1 1 1 1 1 1 1 1 1 1 1 1
1 1 1 1 1 1 1 1 1 1 1 1 1 0 0 0 0 0 -0 -0 -0 0 0 0 0 1 1 1 1 0 0 0 0 1 1 0 0 0
0 0 0 0 1 1 1 0 0 1 1 0 0 0 0 0 0 0 -0 -0 -0 -0 -0 -0 0 0 0 0 0 0 0 0 0 0 0 0 -0 -0
-0 -0 -0 -0 -0 -0 -0 -0 -0 -0 -0 -0 -0 -0 -0 -0 -0 -0 -1 -1 -1 -1 -1 -1 -0 -0 0 0 0 -0 -0 -0 -0 -0 -0 -0 -0 -0
-1 -1 -1 -1 -1 -1 -1 -1 -1 -1 -1 -1 -1 -1 -1 -1 -1 -1 -1 -1 -1 -1 -1 -1 -1 -1 -1 -0 -0 -0 -0 -0 -0 -0 -1 -1 -1 -1
-2 -1 -1 -1 -1 -1 -1 -1 -1 -1 -1 -1 -1 -1 -1 -1 -1 -1 -1 -1 -1 -2 -1 -2 -2 -2 -2 -1 -1 -1 -1 -1 -1 -1 -1 -1 -1 -1
-2 -2 -2 -2 -2 -2 -2 -2 -2 -2 -2 -2 -2 -2 -2 -2 -2 -1 -1 -1 -1 -2 -2 -2 -2 -2 -2 -2 -2 -1 -1 -1 -1 -1 -1 -1 -1 -2
-2 -2 -2 -2 -2 -2 -2 -2 -2 -2 -2 -2 -2 -2 -2 -2 -2 -2 -2 -2 -2 -2 -2 -2 -2 -2 -2 -2 -2 -2 -2 -2 -2 -2 -2 -2 -2 -2
-2 -2 -2 -3 -3 -3 -3 -3 -3 -3 -3 -3 -3 -3 -3 -3 -3 -2 -2 -2 -2 -2 -2 -2 -2 -2 -3 -3 -3 -3 -3 -3 -3 -3 -3 -3 -3 -3
-3 -3 -3 -3 -3 -3 -3 -3 -3 -3 -3 -3 -3 -3 -3 -3 -3 -3 -3 -3 -3 -3 -3 -3 -3 -3 -3 -3 -3 -3 -3 -3 -3 -3 -3 -3 -3 -3
-3 -3 -3 -3 -3 -3 -3 -3 -4 -4 -4 -4 -4 -4 -4 -4 -4 -3 -3 -3 -3 -3 -3 -3 -3 -3 -3 -3 -3 -3 -3 -3 -3 -3 -3 -4 -3 -3
-3 -3 -4 -4 -4 -4 -4 -4 -4 -4 -4 -4 -4 -4 -4 -4 -4 -4 -4 -4 -4 -4 -4 -4 -4 -4 -4 -4 -4 -4 -4 -4 -4 -4 -4 -4 -4 -4
-4 -4 -4 -4 -4 -4 -4 -4 -4 -4 -4 -4 -4 -4 -4 -5 -5 -4 -4 -4 -4 -4 -4 -4 -4 -4 -4 -4 -5 -4 -4 -4 -4 -4 -4 -4 -4 -4
-4 -4 -4 -4 -4 -4 -4 -5 -5 -5 -5 -5 -5 -5 -5 -5 -5 -5 -5 -5 -5 -5 -4 -4 -4 -4 -4 -5 -5 -5 -5 -5 -5 -5 -5 -4 -4 -4
-5 -5 -5 -5 -5 -5 -5 -5 -5 -5 -5 -5 -5 -5 -5 -5 -5 -5 -5 -5 -5 -5 -5 -5 -5 -5 -5 -5 -5 -5 -5 -5 -5 -5 -5 -5 -5 -5
-5 -5 -5 -5 -5 -5 -5 -5 -5 -5 -5 -5 -5 -5 -5 -5 -5 -5 -5 -5 -5 -5 -5 -5 -5 -5 -5 -5 -5 -5 -5 -5 -5 -5 -5 -5 -5 -5
Wind_Speed
5 5 4 3 3 3 3 4 3 4 4 3 3 3 3 4 4 5 6 6 6 6 6 5 6 6 7 7 7 8 8 8 9 10 11 12 12 13
4 5 4 3 3 2 4 4 4 4 4 3 3 3 3 4 5 5 6 6 7 6 6 6 6 6 7 7 7 7 8 8 9 10 11 11 12 13
4 5 5 4 3 3 3 3 4 4 4 4 3 3 4 4 4 4 5 5 5 6 6 7 7 7 7 7 7 7 8 9 9 10 10 11 12 12
5 5 5 4 4 3 3 4 4 4 4 5 4 3 4 4 4 4 4 5 5 6 7 7 7 7 7 7 7 7 8 8 9 10 11 11 12 12
5 5 5 5 5 4 4 4 3 3 4 4 4 3 3 3 4 4 4 4 5 5 6 7 7 7 7 7 7 7 8 8 9 9 10 11 12 11
4 5 5 6 6 5 4 5 4 3 3 3 4 3 3 3 3 3 4 4 4 4 5 6 7 8 8 8 8 8 8 9 9 9 9 10 10 10
3 4 4 5 5 5 4 4 4 3 3 3 4 3 3 3 3 3 4 4 4 3 4 5 5 5 6 7 8 8 8 8 8 9 9 9 9 9
4 3 3 4 5 5 6 5 5 5 5 4 4 5 5 4 4 3 3 4 4 3 4 5 5 5 5 6 7 8 8 8 8 8 8 8 8 8
4 4 3 3 4 4 4 4 4 5 5 5 6 6 6 5 4 4 4 5 5 4 4 5 5 6 5 6 7 8 8 8 8 7 8 8 8 9
4 4 4 4 3 3 3 3 3 4 4 4 5 6 6 5 5 5 5 5 5 3 3 4 5 5 5 6 6 6 7 8 7 7 8 8 8 9
4 4 4 4 4 4 3 3 3 3 2 3 4 5 5 5 4 3 3 3 4 3 2 3 4 5 5 4 5 5 7 7 7 7 7 8 8 8
3 3 4 4 4 4 4 4 4 4 3 3 3 4 4 3 3 4 4 4 3 3 1 2 3 3 3 3 4 5 5 6 7 8 8 8 7 6
3 3 3 4 4 4 4 4 4 4 4 3 3 3 3 3 3 3 3 3 4 3 2 2 3 3 3 4 4 4 4 5 6 6 7 7 7 6
3 3 3 4 4 4 3 3 3 3 3 3 3 3 3 3 3 3 3 4 4 4 4 3 3 3 3 4 4 4 5 4 4 5 5 6 7 6
3 4 4 4 4 3 3 3 3 3 2 3 3 3 3 3 2 2 3 3 3 4 4 4 4 4 4 5 5 5 4 4 4 4 5 5 5 4
2 3 4 4 3 2 2 2 2 2 3 3 3 3 2 2 2 2 2 2 2 3 3 4 5 5 5 5 5 5 5 4 4 5 5 5 5 4
2 2 2 3 3 2 2 2 2 2 3 3 3 2 2 2 2 2 2 2 2 3 3 3 4 4 4 4 4 5 5 5 4 4 4 5 4 4
3 3 3 3 3 3 3 2 2 2 3 3 3 2 2 2 2 2 2 2 3 3 3 3 3 3 3 2 3 5 4 5 4 4 4 4 5 4
3 3 3 3 3 3 3 3 3 3 3 3 3 3 2 2 2 2 2 2 3 3 3 3 2 2 3 4 2 3 4 5 4 4 4 4 5 4
3 3 3 3 3 3 3 3 3 3 3 3 3 3 2 2 2 3 3 3 3 3 3 3 2 3 4 4 4 4 5 4 4 4 4 4 4 5
3 3 3 3 3 3 3 3 3 3 3 3 3 3 3 3 3 3 3 3 4 3 4 4 4 5 4 3 3 3 3 4 5 4 4 4 3 3
3 3 3 3 3 3 3 3 3 3 3 3 3 3 3 3 3 3 3 3 3 3 4 3 3 2 2 3 4 4 4 4 5 5 4 4 2 2
3 3 3 3 3 3 3 4 4 4 3 3 3 3 3 3 3 3 3 3 3 3 3 3 2 2 2 3 3 4 5 5 4 3 3 4 4 5
Wind_Direction
212 213 216 221 230 230 221 222 233 251 256 254 258 262 270 268 276 274 278 275 264 260 265 268 274 285 289 294 299 299 300 304 308 309 310 313 314 317
211 214 217 221 223 235 230 232 240 242 254 258 261 266 270 271 276 276 276 277 261 258 261 265 271 280 286 290 295 296 297 301 304 306 309 312 313 316
209 212 218 219 220 224 234 238 245 242 250 265 264 262 269 277 279 279 278 274 270 264 263 266 271 276 280 284 289 293 297 299 300 303 306 308 310 313
211 212 217 219 221 226 229 239 244 246 242 251 262 265 272 276 280 281 281 277 280 272 261 260 266 270 273 277 282 286 291 297 299 300 300 303 306 308
214 216 219 219 224 226 231 237 250 251 244 240 256 266 272 280 287 291 290 282 284 279 261 261 265 266 268 269 275 281 288 291 292 294 298 303 304 306
218 223 225 223 224 228 232 236 243 246 239 238 249 260 272 284 285 294 295 292 288 288 277 271 264 260 260 265 271 277 283 286 288 290 296 299 301 303
225 229 232 231 236 238 237 234 234 242 240 238 244 258 265 281 281 290 289 292 291 289 295 276 264 262 264 262 264 275 279 281 285 290 293 298 302 303
226 234 237 229 228 234 239 240 238 233 238 241 245 250 259 268 276 278 282 288 292 294 296 290 277 270 266 267 272 275 276 281 287 288 293 297 300 301
229 233 240 240 235 237 231 233 246 246 239 242 249 249 255 258 260 268 271 280 286 296 294 283 285 279 273 270 270 266 271 278 282 289 294 297 297 297
230 231 234 235 236 238 240 245 255 259 255 251 252 260 261 262 257 259 266 279 289 284 288 282 292 293 289 271 266 265 273 280 283 289 293 296 297 294
231 232 232 231 226 229 233 240 253 269 275 262 268 273 276 268 268 261 260 266 285 288 289 287 300 305 292 276 269 272 277 282 287 289 294 297 299 297
222 224 224 228 228 235 239 240 251 267 274 273 272 270 269 260 251 248 247 252 275 277 280 289 297 314 296 286 291 289 285 286 287 288 291 295 301 293
220 224 225 218 229 239 251 252 256 268 268 264 267 271 273 267 261 265 263 254 259 268 267 270 286 294 286 296 297 295 294 298 293 287 286 292 296 290
224 226 223 215 227 242 249 256 263 272 263 263 268 272 274 272 274 279 279 279 274 273 265 254 264 271 283 292 294 304 304 300 299 298 295 296 288 283
226 217 218 221 231 234 227 235 245 254 254 256 263 269 275 278 279 282 289 289 292 286 271 267 267 268 270 275 285 296 301 303 301 304 301 295 288 288
220 205 207 214 225 232 233 236 242 244 250 255 261 269 279 281 284 294 297 294 297 301 299 283 275 267 268 271 273 283 293 293 298 297 296 295 287 280
207 213 216 217 223 229 239 248 250 246 250 259 261 264 271 274 286 295 303 295 287 292 308 318 305 287 277 277 271 275 286 292 295 297 296 290 290 290
206 209 215 222 222 222 227 237 249 253 252 255 257 257 262 269 281 291 288 279 283 291 298 307 315 310 295 283 259 274 280 287 296 297 296 290 289 293
212 215 218 223 225 225 227 235 248 255 252 249 251 255 258 263 271 279 278 275 279 286 292 296 298 298 296 297 285 245 279 293 297 295 293 292 289 294
223 224 227 231 231 232 232 234 241 250 248 244 244 246 246 251 260 268 271 279 284 288 291 291 289 284 279 285 290 296 286 289 290 289 293 296 296 295
225 228 230 233 235 236 237 237 237 246 249 242 237 238 240 242 250 260 267 277 279 283 287 291 293 290 284 283 281 293 308 292 281 282 290 291 299 308
231 233 234 237 237 235 234 234 236 246 246 241 239 239 240 244 246 250 258 267 273 277 285 292 308 306 293 279 282 294 304 314 305 290 280 271 278 278
236 238 241 244 246 242 235 230 236 244 239 238 241 242 241 245 251 255 259 260 271 281 288 292 305 309 299 285 283 292 301 310 320 325 325 315 296 289
Height
1493 1494 1495 1496 1496 1497 1498 1499 1499 1498 1497 1497 1497 1497 1496 1496 1495 1494 1493 1492 1492 1491 1490 1489 1488 1488 1486 1485 1484 1483 1482 1481 1479 1478 1476 1475 1473 1471
1489 1490 1491 1492 1492 1493 1494 1495 1495 1495 1494 1493 1493 1493 1492 1492 1491 1490 1489 1488 1488 1487 1486 1485 1484 1483 1482 1481 1480 1479 1478 1477 1475 1474 1473 1471 1469 1468
1485 1486 1487 1488 1488 1489 1489 1490 1491 1491 1490 1489 1489 1489 1488 1488 1487 1486 1485 1484 1483 1482 1482 1481 1480 1479 1478 1477 1476 1475 1474 1473 1472 1470 1469 1467 1466 1464
1481 1482 1483 1484 1485 1485 1485 1486 1486 1487 1486 1485 1485 1484 1484 1484 1483 1482 1481 1480 1479 1478 1477 1476 1476 1475 1474 1473 1472 1471 1470 1469 1468 1466 1465 1463 1462 1460
1477 1478 1479 1480 1480 1481 1481 1481 1482 1482 1482 1481 1480 1480 1480 1479 1479 1478 1477 1476 1475 1474 1473 1472 1471 1471 1470 1469 1468 1467 1466 1465 1463 1462 1461 1459 1458 1456
1473 1474 1475 1476 1476 1477 1477 1477 1477 1477 1477 1477 1477 1476 1476 1475 1475 1473 1473 1472 1471 1470 1469 1468 1467 1466 1466 1465 1464 1463 1461 1460 1459 1458 1457 1455 1454 1452
1469 1470 1471 1472 1472 1473 1473 1473 1473 1473 1473 1473 1473 1472 1472 1471 1471 1470 1469 1468 1467 1466 1465 1464 1464 1462 1461 1460 1459 1458 1457 1456 1455 1454 1452 1451 1450 1448
1465 1466 1467 1467 1468 1468 1469 1469 1469 1469 1469 1469 1468 1468 1468 1468 1467 1467 1466 1465 1463 1463 1462 1461 1460 1458 1457 1456 1455 1454 1453 1452 1451 1449 1448 1447 1446 1445
1461 1462 1462 1463 1464 1464 1464 1464 1464 1465 1465 1465 1465 1464 1464 1464 1464 1463 1463 1462 1460 1459 1459 1457 1456 1454 1453 1452 1451 1450 1449 1447 1446 1445 1444 1443 1442 1441
1457 1458 1458 1459 1460 1460 1460 1460 1460 1460 1461 1461 1461 1461 1461 1461 1461 1460 1459 1458 1457 1457 1456 1454 1452 1450 1449 1448 1447 1446 1445 1443 1442 1441 1440 1440 1439 1438
1453 1454 1455 1455 1456 1456 1457 1456 1456 1457 1457 1457 1457 1457 1457 1457 1457 1457 1456 1455 1453 1453 1452 1451 1449 1447 1445 1444 1444 1442 1441 1439 1438 1437 1437 1436 1435 1434
1450 1450 1451 1452 1452 1453 1453 1453 1452 1452 1453 1453 1453 1454 1454 1453 1453 1453 1452 1451 1450 1449 1449 1448 1446 1445 1442 1441 1440 1439 1438 1436 1435 1434 1433 1432 1431 1430
1446 1447 1448 1448 1449 1449 1449 1449 1449 1450 1450 1450 1450 1450 1450 1449 1449 1448 1448 1448 1447 1446 1446 1445 1443 1442 1441 1438 1437 1436 1434 1433 1432 1431 1430 1429 1428 1427
1442 1443 1444 1445 1445 1446 1446 1446 1447 1447 1447 1447 1446 1446 1446 1445 1445 1445 1445 1444 1444 1443 1442 1442 1440 1439 1437 1435 1433 1432 1431 1430 1429 1427 1426 1426 1425 1424
1439 1440 1441 1441 1442 1442 1443 1443 1443 1444 1444 1443 1443 1442 1443 1442 1441 1441 1441 1441 1440 1440 1439 1438 1437 1435 1434 1432 1431 1429 1428 1427 1426 1424 1423 1422 1421 1420
1436 1437 1437 1438 1439 1439 1439 1439 1440 1440 1440 1440 1440 1439 1440 1439 1439 1438 1438 1437 1436 1436 1436 1435 1433 1432 1431 1429 1428 1426 1425 1424 1423 1422 1420 1419 1418 1417
1433 1433 1434 1434 1435 1435 1436 1436 1436 1437 1437 1437 1437 1436 1436 1436 1436 1435 1435 1434 1433 1432 1432 1431 1430 1429 1427 1426 1425 1424 1423 1421 1420 1419 1417 1416 1415 1414
1430 1430 1430 1431 1431 1432 1432 1432 1433 1433 1433 1433 1433 1433 1433 1432 1432 1432 1432 1431 1431 1430 1429 1428 1427 1425 1424 1423 1423 1421 1420 1418 1417 1416 1415 1413 1411 1411
1427 1427 1427 1427 1428 1428 1429 1429 1429 1430 1430 1430 1430 1430 1429 1429 1429 1429 1428 1428 1428 1427 1426 1425 1424 1422 1421 1419 1419 1418 1417 1415 1414 1413 1412 1410 1408 1408
1423 1423 1424 1424 1424 1425 1425 1425 1426 1426 1426 1426 1426 1426 1426 1426 1426 1426 1425 1425 1425 1424 1423 1422 1421 1420 1419 1418 1416 1415 1414 1413 1411 1409 1408 1407 1406 1406
1419 1420 1420 1421 1421 1421 1422 1422 1422 1422 1423 1423 1423 1423 1423 1423 1423 1423 1423 1422 1422 1421 1420 1419 1418 1418 1417 1415 1414 1412 1411 1411 1409 1407 1406 1404 1403 1402
1416 1416 1417 1417 1417 1417 1418 1418 1418 1419 1419 1419 1419 1420 1420 1420 1420 1420 1420 1419 1419 1418 1418 1417 1416 1415 1414 1412 1411 1410 1409 1408 1407 1405 1404 1403 1401 1400
1412 1413 1413 1413 1414 1414 1414 1414 1415 1415 1415 1416 1416 1416 1417 1417 1417 1417 1417 1416 1416 1415 1415 1414 1413 1412 1411 1410 1409 1408 1407 1405 1404 1403 1402 1401 1401 1400